Location: Newark
(7.0858°N, 171.3717°E)
Time: 12:58:30
(UTC+00:00)

A-11 Canister half - Pass Details

Date: 30 July 2021
Orbit: 1526 x 1683 km, 47.3° (Epoch: 26 September)

Event Time Altitude Azimuth Distance (km) Brightness Sun altitude
Rises 07:27:02 0° 334° (NNW) 4,784 12.3 -8.6°
Reaches altitude 10° 07:30:37 10° 344° (NNW) 3,775 11.6 -9.4°
Maximum altitude 07:38:57 34° 46° (NE) 2,355 9.8 -11.3°
Enters shadow 07:45:35 15° 101° (E) 3,308 10.1 -12.9°
